sat.trackr.live / text

‹ back to catalog

STARLINK-5458

NORAD 54764 · 2022-175G

PAYLOAD ACTIVE UNKNOWN

§ Identity

Operator
Country
US
Launch date
2022-12-17
Launch site
AFETR
Launch vehicle
Mass (kg)
RCS (m²)

Purposes: comms

External: N2YO · Heavens-Above · Gunter

§ Orbital elements

Epoch: 2026-05-25T03:42:18.078624Z

Period
95.44 min
Inclination
53.2123°
Eccentricity
0.0001294
Mean motion
15.08849374 rev/d
Perigee alt
538.8 km
Apogee alt
540.6 km
Semi-major
6,917.9 km
B*
-5.5783e-5
RAAN
60.7840°
Arg perigee
79.5541°
Mean anomaly
280.5597°
Rev number
19,146

§ Raw data

STARLINK-54581 54764U 22175G   26145.15437591 -.00001176  00000+0 -55783-4 0  99942 54764  53.2123  60.7840 0001294  79.5541 280.5597 15.08849374191462

JSON: /api/v1/satellites/54764 · /tle

For live sub-satellite position, see the globe view (requires WebGL).

§ Visibility from observer

Set your observer location to see the next 7 days of passes ≥ 10°. The values pass through the URL so the page stays shareable.

No JS? Fill the form by hand. The geolocation button needs JavaScript.